Wind_Speed
25 25 25 23 21 19 18 18 20 21 21 21 20 20 20 20 20 19 18 18 17 15 14 13 12 11 11 11 11 10 10 10 9 9 8 8 8 8 8 9 10 11 11 12
27 26 28 27 26 23 20 19 20 20 21 22 21 21 21 21 22 22 20 19 17 15 14 13 12 11 11 12 11 11 10 10 10 11 10 9 10 9 10 10 11 12 12 13
29 28 29 29 27 26 24 22 21 21 22 23 24 24 23 23 23 22 20 20 18 16 15 14 13 12 12 12 12 11 11 11 11 11 11 11 11 11 12 12 12 13 14 15
29 30 31 29 28 29 28 26 25 25 24 26 26 26 24 24 23 23 22 22 21 18 17 15 14 13 13 13 13 13 13 12 13 13 12 13 13 13 13 13 13 14 15 16
30 30 31 30 31 32 31 30 28 28 27 27 27 26 25 25 24 23 23 23 21 20 19 17 16 16 16 15 15 15 14 14 14 14 14 14 14 15 15 16 16 16 17 17
32 32 32 32 32 32 33 33 32 30 29 27 26 26 26 25 24 24 24 22 21 21 20 19 18 18 18 17 17 16 16 16 16 17 17 18 17 17 18 18 19 19 18 18
31 32 32 32 33 34 34 34 32 31 30 28 26 26 25 26 26 25 24 23 22 22 21 21 20 20 20 20 19 18 18 18 19 19 20 20 20 20 21 21 21 21 21 21
32 33 33 32 32 34 35 33 32 31 30 27 27 26 26 26 26 25 25 25 24 23 22 22 22 21 21 21 21 20 20 20 21 21 21 21 22 22 22 23 23 24 23 22
33 34 33 33 34 34 34 33 31 30 27 27 27 26 26 25 25 25 25 25 25 24 24 24 23 22 22 22 22 22 22 22 22 23 23 23 24 24 24 25 25 24 24 24
34 33 33 32 33 34 34 33 31 30 29 27 26 27 27 26 25 25 26 27 27 27 25 25 24 24 24 23 23 23 24 24 24 25 25 25 26 26 26 26 26 26 26 26
34 32 31 31 31 31 31 31 31 31 29 28 26 27 27 26 26 26 27 28 27 26 26 25 25 25 25 25 25 25 26 26 26 26 26 27 27 27 28 27 27 28 28 28
33 32 31 31 30 30 30 30 30 31 31 30 29 29 28 27 27 27 28 28 28 27 27 27 27 28 28 27 27 27 27 27 27 27 27 27 27 28 28 28 28 28 29 29
34 33 32 31 30 29 28 29 29 30 31 31 31 31 31 30 30 30 30 29 29 28 28 29 29 29 29 29 29 29 29 29 29 29 29 29 29 29 29 29 29 29 29 30
34 34 33 31 31 30 30 30 31 31 32 32 33 34 34 33 31 31 31 31 30 30 30 30 30 30 30 30 30 30 30 30 30 30 30 30 30 30 30 30 30 30 30 30
33 33 33 33 33 32 32 32 32 32 32 33 33 33 33 34 34 33 33 32 31 31 31 31 31 31 32 31 31 30 30 30 31 31 31 31 31 30 31 31 30 30 30 29
34 33 33 34 34 34 34 34 34 33 33 33 33 33 33 34 34 34 34 33 32 32 32 33 33 33 32 32 31 31 31 30 30 30 30 30 30 31 30 30 29 29 30 30
34 34 35 35 34 35 35 34 34 34 34 34 34 34 34 35 35 35 33 32 32 33 33 33 33 32 31 32 32 31 31 31 30 29 29 29 30 30 30 30 30 30 30 29
33 33 32 32 32 31 32 33 34 34 34 34 35 35 35 34 34 35 34 33 32 32 33 33 32 31 31 31 30 29 30 30 29 29 29 29 29 30 30 30 29 29 29 29
32 31 30 30 31 31 32 33 33 33 33 33 33 33 33 33 33 33 33 33 32 31 31 31 31 30 30 29 29 29 29 29 29 29 29 29 29 29 29 28 28 29 29 30
31 31 31 30 30 30 31 31 32 32 32 33 32 32 33 33 32 32 31 30 30 30 30 30 29 29 29 29 29 29 29 28 28 28 28 27 27 27 27 28 27 27 28 29
29 29 29 29 29 29 29 30 30 30 31 31 31 30 30 30 30 29 29 29 29 28 28 28 28 28 28 28 27 27 27 27 27 27 26 26 26 26 27 27 27 27 27 27
28 28 28 28 28 28 28 28 28 28 28 28 29 28 27 27 27 28 27 27 27 27 27 27 27 26 27 26 25 25 25 26 26 26 26 26 26 26 27 27 27 26 26 27
26 27 27 27 26 26 26 26 26 26 25 25 25 25 25 25 25 25 25 25 25 25 25 24 24 24 24 24 24 24 25 24 24 24 25 25 25 26 26 26 26 26 27 27
24 24 25 25 25 24 23 24 23 23 23 23 22 21 21 22 22 22 23 23 23 22 21 21 21 22 23 23 23 23 23 24 24 25 24 25 25 25 25 25 25 26 26 26
22 22 22 22 22 22 22 22 21 20 20 20 20 20 20 20 20 19 19 19 20 19 19 20 20 20 21 21 22 22 22 23 23 23 24 24 24 24 24 25 25 25 25 25
18 19 19 20 20 19 19 18 18 18 18 18 18 17 17 17 17 17 16 16 16 16 16 17 18 19 19 19 20 21 21 21 22 22 23 23 23 24 24 24 24 25 25 26
14 14 15 16 16 16 15 15 15 15 15 15 15 14 14 15 15 14 14 13 13 14 15 16 16 17 17 18 18 19 19 20 20 21 22 22 23 23 24 25 25 25 25 25
Wind_Direction
222 224 229 235 236 237 242 248 252 249 252 262 271 282 289 298 303 310 317 321 322 321 316 319 323 324 326 328 327 325 323 321 323 317 313 306 304 303 299 296 296 292 291 293
225 225 229 234 238 239 243 247 251 249 250 257 265 274 282 291 298 301 307 312 314 314 312 312 317 318 318 320 320 322 321 321 318 319 314 308 305 307 305 301 300 299 297 296
228 227 231 234 237 241 244 245 250 255 255 258 261 268 277 286 292 297 300 306 307 308 307 304 307 309 309 312 314 316 315 314 317 317 319 320 315 309 307 306 306 306 302 299
230 229 231 235 235 238 242 245 251 254 257 260 264 269 275 283 289 295 298 301 301 301 301 303 305 307 304 305 307 309 311 313 315 316 313 314 314 313 314 313 309 307 305 304
234 233 233 233 235 237 241 244 249 253 257 261 263 267 273 279 286 292 296 298 297 298 299 300 302 303 302 300 301 300 304 308 310 311 309 308 308 309 310 309 309 309 308 305
234 234 233 232 233 235 240 244 248 252 256 258 261 266 273 279 283 288 291 292 291 292 294 295 295 296 296 296 295 294 297 298 300 301 303 305 304 304 306 306 307 306 306 304
235 235 234 233 233 235 239 246 251 254 256 259 261 266 272 278 282 285 287 289 290 290 290 290 290 292 292 292 292 291 293 293 294 296 298 300 301 302 303 303 303 303 302 302
235 235 234 234 235 237 242 247 253 257 255 257 260 265 270 273 278 281 284 287 288 288 287 287 287 288 289 291 292 291 290 291 292 293 296 298 299 300 302 302 301 302 301 301
236 238 238 236 237 240 243 247 251 254 252 254 259 266 271 274 277 280 282 285 286 286 286 285 285 287 288 289 290 291 292 291 291 293 295 297 299 300 300 300 299 299 299 300
236 237 238 238 238 240 243 247 250 253 255 257 261 266 270 272 275 279 280 282 284 284 285 285 285 286 288 289 290 290 290 291 291 292 294 296 298 297 298 298 298 297 298 299
237 238 239 239 240 241 244 249 251 253 255 259 261 265 269 273 276 278 278 281 282 283 285 283 284 285 286 287 288 289 289 290 292 294 294 294 295 296 297 297 296 296 297 298
237 238 240 243 245 246 247 249 250 252 256 259 263 266 268 271 275 277 279 280 280 280 281 282 284 285 286 287 288 288 288 289 290 292 293 295 295 295 295 294 294 295 296 297
237 239 243 246 248 249 250 251 251 253 256 260 262 265 268 270 273 276 278 278 278 280 281 282 284 284 286 286 287 287 287 288 289 290 291 292 294 295 294 294 294 295 296 297
239 241 245 247 248 250 251 253 255 257 259 261 263 266 268 270 272 275 276 277 278 279 280 282 283 284 285 285 285 285 286 287 289 289 290 291 292 293 293 293 294 295 295 296
240 243 245 248 249 251 253 256 257 259 261 262 263 266 269 271 272 275 275 276 277 278 280 281 282 283 283 285 285 285 286 286 288 289 290 290 290 291 291 292 294 295 295 295
242 245 247 248 250 252 255 257 259 260 262 264 265 266 268 270 273 274 275 274 276 277 279 280 281 282 282 283 285 286 286 286 287 288 289 290 290 290 290 290 292 294 295 294
243 246 247 249 253 256 257 258 260 263 264 264 265 267 267 269 272 273 275 275 275 276 277 278 280 281 281 283 283 284 285 287 288 288 288 289 289 288 288 289 291 291 292 293
245 249 251 253 255 256 257 260 262 263 264 266 268 269 270 270 272 273 275 276 276 276 277 277 278 278 279 282 283 284 285 285 285 286 287 289 288 286 287 289 290 291 293 294
247 249 253 255 256 258 260 262 264 265 265 267 269 269 270 271 271 272 274 276 277 277 276 276 276 277 279 281 282 282 283 283 284 286 288 289 289 288 290 291 292 294 294 295
248 251 254 256 258 260 261 263 265 266 267 267 269 270 271 272 272 273 274 275 275 276 276 276 276 276 278 280 280 280 282 284 285 286 287 287 288 289 290 292 293 293 293 294
249 252 254 257 259 260 261 263 264 266 267 268 269 271 270 271 272 273 274 274 274 274 275 276 276 276 277 279 280 282 283 283 284 285 286 287 288 288 288 291 292 293 294 294
250 251 254 256 257 258 260 262 264 265 267 269 270 270 271 271 272 272 273 274 274 274 275 276 276 276 278 277 278 281 282 282 283 285 287 288 288 288 290 292 294 295 296 296
250 252 253 255 256 258 259 260 262 264 267 269 271 271 272 272 271 271 273 273 274 274 275 275 274 275 275 277 278 279 280 282 283 285 287 289 290 291 293 295 295 296 297 297
250 251 253 254 255 256 257 259 260 263 265 268 270 272 274 273 272 272 273 273 273 273 273 274 274 275 277 278 280 281 281 282 283 285 288 290 291 293 294 296 297 298 298 298
249 251 252 253 252 253 255 257 259 262 265 268 271 273 274 273 273 274 275 274 271 270 271 273 275 278 279 280 282 283 283 284 285 286 288 289 290 292 294 296 297 297 297 298
249 250 249 249 248 249 251 255 259 262 265 267 270 272 271 272 273 274 275 273 270 270 273 275 278 280 281 283 284 285 285 286 286 286 288 290 291 293 295 295 296 297 298 300
248 249 248 246 245 246 248 252 255 258 259 261 265 268 269 269 270 270 271 272 272 274 276 278 280 281 283 286 289 290 289 289 289 290 292 293 294 296 297 297 298 299 300 301
Height
5891 5894 5896 5898 5900 5901 5902 5903 5905 5906 5906 5907 5907 5907 5906 5906 5906 5905 5904 5903 5902 5900 5899 5897 5896 5894 5892 5890 5888 5887 5885 5883 5882 5881 5879 5878 5878 5877 5876 5875 5874 5873 5872 5871
5887 5889 5891 5893 5895 5896 5898 5899 5900 5901 5902 5903 5903 5904 5903 5903 5903 5902 5901 5901 5899 5898 5897 5895 5893 5892 5890 5888 5887 5885 5883 5880 5879 5879 5877 5876 5875 5874 5873 5872 5871 5869 5868 5867
5881 5884 5886 5888 5891 5892 5894 5894 5895 5896 5898 5898 5899 5900 5900 5900 5899 5897 5897 5896 5894 5894 5894 5892 5891 5889 5887 5886 5884 5882 5881 5879 5878 5877 5875 5874 5873 5871 5870 5868 5867 5866 5864 5862
5875 5879 5880 5885 5886 5887 5888 5889 5890 5891 5892 5893 5894 5895 5895 5895 5895 5894 5893 5892 5891 5890 5890 5889 5887 5885 5884 5883 5882 5880 5878 5877 5876 5874 5873 5871 5870 5869 5867 5865 5864 5862 5860 5858
5868 5871 5874 5878 5879 5881 5882 5883 5885 5886 5888 5889 5889 5890 5890 5890 5890 5890 5889 5888 5887 5886 5885 5884 5883 5882 5880 5879 5878 5876 5875 5874 5872 5871 5870 5868 5867 5865 5864 5862 5860 5858 5856 5853
5861 5864 5867 5872 5873 5875 5877 5877 5880 5881 5882 5883 5884 5885 5886 5885 5885 5885 5884 5883 5883 5882 5881 5880 5879 5878 5876 5875 5874 5872 5871 5870 5868 5867 5866 5864 5863 5861 5860 5858 5855 5853 5851 5848
5854 5857 5860 5864 5866 5869 5872 5873 5875 5876 5877 5877 5879 5880 5880 5880 5880 5880 5879 5878 5877 5876 5875 5874 5873 5872 5871 5870 5869 5868 5867 5865 5864 5863 5861 5860 5858 5856 5854 5852 5850 5848 5846 5844
5847 5850 5855 5857 5860 5863 5864 5867 5869 5869 5870 5871 5873 5874 5874 5874 5874 5874 5873 5872 5870 5869 5868 5868 5867 5866 5866 5864 5863 5862 5861 5860 5859 5858 5856 5854 5852 5851 5849 5847 5844 5842 5840 5837
5840 5844 5847 5850 5853 5856 5858 5861 5863 5863 5863 5865 5867 5868 5868 5868 5867 5867 5867 5866 5864 5863 5862 5861 5861 5860 5859 5859 5858 5856 5855 5854 5853 5851 5850 5848 5846 5844 5842 5840 5838 5835 5833 5831
5833 5835 5839 5843 5846 5849 5852 5854 5856 5857 5858 5859 5860 5861 5862 5861 5861 5861 5860 5859 5858 5857 5856 5855 5855 5854 5853 5852 5852 5850 5849 5848 5846 5844 5842 5841 5839 5837 5835 5833 5831 5828 5826 5824
5826 5829 5832 5836 5839 5842 5845 5847 5849 5850 5852 5853 5854 5855 5855 5855 5854 5854 5853 5852 5851 5850 5849 5849 5848 5848 5847 5846 5845 5844 5842 5841 5839 5837 5836 5834 5832 5829 5827 5825 5823 5821 5818 5816
5819 5823 5827 5830 5832 5835 5838 5839 5841 5843 5845 5846 5847 5847 5847 5847 5847 5847 5846 5845 5844 5844 5843 5842 5841 5840 5839 5838 5837 5836 5835 5833 5832 5830 5828 5826 5824 5822 5819 5817 5815 5813 5810 5808
5812 5816 5819 5822 5825 5827 5830 5832 5834 5835 5837 5838 5839 5840 5840 5839 5839 5839 5839 5838 5837 5836 5836 5835 5834 5833 5831 5830 5829 5828 5827 5825 5824 5822 5820 5818 5816 5814 5812 5810 5807 5805 5802 5800
5806 5809 5812 5815 5817 5819 5821 5823 5825 5827 5828 5830 5831 5831 5831 5830 5830 5831 5830 5829 5828 5828 5828 5827 5826 5825 5823 5822 5821 5820 5818 5817 5815 5814 5812 5810 5808 5806 5803 5801 5799 5797 5794 5791
5799 5802 5805 5807 5809 5811 5812 5814 5816 5818 5820 5820 5821 5822 5822 5822 5822 5822 5821 5821 5820 5820 5819 5819 5818 5816 5815 5813 5812 5810 5809 5808 5806 5805 5803 5801 5799 5797 5795 5793 5791 5788 5786 5783
5792 5795 5797 5799 5801 5803 5804 5806 5807 5809 5810 5811 5812 5812 5813 5813 5813 5812 5812 5811 5811 5811 5810 5809 5808 5807 5806 5805 5803 5802 5801 5799 5798 5796 5794 5793 5791 5788 5786 5784 5782 5779 5777 5775
5785 5787 5789 5791 5792 5794 5795 5797 5798 5800 5801 5801 5802 5802 5803 5803 5803 5803 5802 5801 5801 5801 5801 5800 5799 5797 5797 5796 5794 5793 5792 5790 5789 5787 5786 5784 5782 5780 5778 5776 5774 5771 5769 5766
5777 5779 5780 5782 5783 5784 5785 5787 5789 5790 5791 5792 5792 5793 5793 5793 5793 5793 5793 5793 5792 5792 5791 5790 5790 5789 5788 5787 5785 5784 5783 5781 5780 5779 5777 5775 5773 5772 5770 5767 5765 5763 5761 5758
5769 5770 5772 5773 5774 5776 5777 5779 5780 5781 5782 5783 5783 5783 5783 5783 5783 5783 5784 5784 5783 5783 5782 5781 5780 5780 5779 5778 5776 5775 5774 5773 5772 5770 5769 5767 5765 5763 5761 5759 5757 5755 5753 5749
5761 5762 5764 5765 5766 5768 5769 5770 5771 5772 5773 5773 5774 5774 5774 5774 5774 5774 5774 5774 5774 5774 5773 5772 5771 5771 5770 5769 5768 5767 5766 5764 5763 5762 5760 5758 5757 5755 5753 5751 5748 5746 5743 5741
5753 5755 5756 5758 5759 5760 5761 5762 5763 5764 5764 5764 5765 5765 5765 5765 5765 5765 5765 5765 5765 5764 5764 5763 5763 5762 5762 5761 5760 5759 5757 5756 5755 5753 5752 5750 5749 5747 5745 5743 5740 5737 5734 5732
5745 5747 5749 5750 5752 5753 5754 5754 5755 5755 5756 5756 5756 5756 5756 5756 5756 5756 5756 5756 5756 5756 5755 5755 5755 5754 5754 5753 5752 5751 5750 5749 5747 5746 5744 5743 5741 5739 5737 5735 5732 5730 5727 5725
5737 5739 5741 5743 5744 5745 5746 5747 5747 5748 5748 5748 5748 5748 5748 5748 5748 5748 5748 5748 5748 5747 5747 5747 5747 5746 5746 5745 5744 5743 5742 5741 5740 5738 5737 5735 5733 5731 5729 5727 5725 5722 5720 5717
5730 5732 5733 5735 5736 5738 5738 5739 5740 5740 5741 5741 5741 5741 5741 5741 5741 5741 5741 5741 5740 5740 5740 5740 5739 5739 5739 5738 5737 5736 5735 5734 5732 5731 5730 5728 5726 5724 5722 5720 5717 5715 5712 5710
5723 5725 5726 5728 5729 5730 5731 5732 5733 5734 5734 5734 5735 5735 5734 5734 5734 5734 5734 5734 5734 5733 5733 5733 5733 5733 5732 5731 5730 5729 5728 5726 5725 5724 5722 5720 5719 5717 5715 5713 5710 5707 5705 5702
5717 5719 5720 5721 5723 5724 5726 5727 5727 5728 5728 5729 5729 5729 5728 5729 5729 5728 5728 5728 5728 5728 5728 5727 5727 5726 5726 5725 5724 5722 5721 5720 5718 5717 5715 5713 5712 5710 5708 5705 5703 5700 5697 5694
5712 5713 5715 5716 5718 5719 5721 5722 5722 5723 5723 5724 5724 5724 5724 5724 5724 5724 5723 5723 5723 5723 5723 5722 5722 5721 5720 5719 5718 5716 5715 5713 5712 5710 5708 5706 5704 5702 5700 5698 5695 5692 5690 5687